Location: Ammerl�gen
(47.2167°N, 9.6000°E)
Time: 07:38:38
(UTC+00:00)

Iridium 4 Rocket - Pass Details

Date: 03 August 2021
Orbit: 584 x 904 km, 86.9° (Epoch: 18 September)

Event Time Altitude Azimuth Distance (km) Brightness Sun altitude
Rises 01:13:56 0° 354° (N) 3,446 7.8 -21.1°
Reaches altitude 10° 01:16:20 10° 352° (N) 2,536 6.9 -20.9°
Maximum altitude 01:22:05 68° 271° (W) 967 3.8 -20.4°
Enters shadow 01:24:25 37° 201° (SSW) 1,363 4.2 -20.2°
